Date String (YYYY-MM-DD hh:mm:ss) UTC,Instrument flags,Ambient pressure (hPa),Sample flow (lpm),Bypass flow (lpm),Sample temperature (°C),Ambient temperature (°C),ASC tube jacket temperature (°C),LED temperature (°C),Box temperature (°C),Sample RH (%),Span deviation,Mass concentration (μg/m³),Mass concentration (μg/m³),Mass concentration (μg/m³)
DateTimeUTC,F1_M11,P_M11,Q1_M11,Q2_M11,T1_M11,T2_M11,T3_M11,T4_M11,T5_M11,U1_M11,ZSPAN_M11,X2_M11,X0_M11,X1_M11
2022-04-16 21:00:00,,0821.3,5.00,0.00,26.4,25.6,00.0,35.1,28.3,10.2,0001.9,0010.19,0024.06,0008.36
2022-04-16 21:01:00,,0821.2,5.01,0.00,26.4,25.7,00.0,35.2,28.3,10.3,0001.9,0010.30,0025.29,0008.40
2022-04-16 21:02:00,,0821.2,4.99,0.00,26.4,25.7,00.0,35.2,28.3,10.3,0002.2,0010.38,0026.04,0008.46
2022-04-16 21:03:00,,0821.2,5.01,0.00,26.4,25.7,00.0,35.2,28.3,10.3,0001.8,0010.44,0027.52,0008.54
2022-04-16 21:04:00,,0821.2,5.01,0.00,26.4,25.7,00.0,35.2,28.3,10.2,0001.6,0010.52,0027.48,0008.59
2022-04-16 21:05:00,,0821.1,4.99,0.00,26.4,25.7,00.0,35.2,28.4,10.4,0001.5,0010.60,0026.50,0008.64
2022-04-16 21:06:00,,0821.1,4.99,0.00,26.5,25.8,00.0,35.2,28.4,10.3,0002.0,0010.65,0026.09,0008.68
2022-04-16 21:07:00,,0821.1,5.01,0.00,26.5,25.8,00.0,35.2,28.4,10.3,0002.1,0010.68,0025.20,0008.73
2022-04-16 21:08:00,,0821.1,4.99,0.00,26.5,25.8,00.0,35.2,28.4,10.2,0002.3,0010.68,0025.15,0008.78
2022-04-16 21:09:00,,0821.1,5.01,0.00,26.5,25.8,00.0,35.3,28.4,10.2,0002.4,0010.66,0026.18,0008.79
2022-04-16 21:10:00,,0821.1,4.99,0.00,26.5,25.8,00.0,35.3,28.4,10.2,0002.7,0010.64,0026.67,0008.79
2022-04-16 21:11:00,,0821.1,5.01,0.00,26.5,25.8,00.0,35.3,28.4,10.2,0002.5,0010.56,0025.33,0008.78
2022-04-16 21:12:00,,0821.1,5.01,0.00,26.6,25.9,00.0,35.3,28.5,10.2,0002.9,0010.53,0024.89,0008.80
2022-04-16 21:13:00,,0821.1,4.99,0.00,26.6,25.9,00.0,35.3,28.5,10.1,0003.2,0010.55,0026.41,0008.85
2022-04-16 21:14:00,,0821.0,5.01,0.00,26.6,25.9,00.0,35.3,28.5,10.1,0003.8,0010.58,0026.37,0008.86
2022-04-16 21:15:00,,0821.0,5.00,0.00,26.6,25.9,00.0,35.3,28.5,10.1,0004.2,0010.53,0025.03,0008.89
2022-04-16 21:16:00,,0821.0,4.99,0.00,26.6,26.0,00.0,35.4,28.5,10.1,0004.4,0010.51,0024.31,0008.92
2022-04-16 21:17:00,,0821.0,5.00,0.00,26.6,26.0,00.0,35.4,28.5,10.2,0004.1,0010.48,0025.26,0008.94
2022-04-16 21:18:00,,0821.0,4.99,0.00,26.6,26.0,00.0,35.4,28.5,10.2,0004.7,0010.54,0026.80,0008.95
2022-04-16 21:19:00,,0821.0,5.01,0.00,26.7,26.0,00.0,35.4,28.6,10.1,0003.7,0010.61,0027.69,0008.96
2022-04-16 21:20:00,,0820.9,4.99,0.00,26.7,26.0,00.0,35.4,28.6,10.1,0003.3,0010.64,0026.83,0009.01
2022-04-16 21:21:00,,0820.9,5.00,0.00,26.7,26.0,00.0,35.4,28.6,10.2,0002.9,0010.68,0025.89,0009.04
2022-04-16 21:22:00,,0820.9,5.01,0.00,26.7,26.0,00.0,35.5,28.6,10.2,0003.7,0010.75,0026.12,0009.08
2022-04-16 21:23:00,,0820.8,4.99,0.00,26.7,26.0,00.0,35.5,28.6,10.2,0002.0,0010.78,0025.85,0009.11
2022-04-16 21:24:00,,0820.8,5.00,0.00,26.7,26.0,00.0,35.5,28.6,10.1,0001.9,0010.75,0024.04,0009.12
2022-04-16 21:25:00,,0820.8,5.00,0.00,26.7,26.0,00.0,35.5,28.6,10.2,0002.9,0010.74,0022.81,0009.13
2022-04-16 21:26:00,,0820.8,4.99,0.00,26.7,26.0,00.0,35.5,28.6,10.1,0003.3,0010.79,0023.72,0009.16
2022-04-16 21:27:00,,0820.8,5.00,0.00,26.7,26.0,00.0,35.5,28.6,10.1,0003.5,0010.82,0024.11,0009.16
2022-04-16 21:28:00,,0820.8,5.00,0.00,26.8,26.0,00.0,35.5,28.6,10.2,0004.1,0010.81,0022.83,0009.15
2022-04-16 21:29:00,,0820.8,5.00,0.00,26.8,26.0,00.0,35.5,28.7,10.3,0004.2,0010.78,0021.47,0009.16
2022-04-16 21:30:00,,0820.7,5.01,0.00,26.8,26.1,00.0,35.6,28.7,10.1,0005.1,0010.74,0020.46,0009.15
2022-04-16 21:31:00,,0820.7,5.00,0.00,26.8,26.1,00.0,35.6,28.7,10.2,0005.8,0010.77,0020.64,0009.13
2022-04-16 21:32:00,,0820.7,5.01,0.00,26.8,26.1,00.0,35.6,28.7,10.3,0006.1,0010.81,0021.64,0009.14
2022-04-16 21:33:00,,0820.7,5.00,0.00,26.8,26.1,00.0,35.6,28.7,10.2,0005.9,0010.84,0022.14,0009.15
2022-04-16 21:34:00,,0820.7,4.99,0.00,26.8,26.1,00.0,35.6,28.7,10.3,0005.9,0010.85,0022.93,0009.15
2022-04-16 21:35:00,,0820.6,5.00,0.00,26.8,26.1,00.0,35.6,28.7,10.1,0005.8,0010.94,0023.85,0009.14
2022-04-16 21:36:00,,0820.6,5.01,0.00,26.9,26.1,00.0,35.6,28.7,10.1,0005.5,0010.99,0023.48,0009.14
2022-04-16 21:37:00,,0820.6,5.00,0.00,26.9,26.1,00.0,35.6,28.8,10.1,0006.0,0010.96,0022.91,0009.14
2022-04-16 21:38:00,,0820.6,4.99,0.00,26.9,26.1,00.0,35.7,28.8,10.0,0005.9,0010.95,0022.65,0009.14
2022-04-16 21:39:00,,0820.5,5.01,0.00,26.9,26.1,00.0,35.7,28.8,10.0,0005.1,0010.97,0022.98,0009.16
2022-04-16 21:40:00,,0820.3,4.99,0.00,26.9,26.2,00.0,35.7,28.8,10.0,0004.6,0011.04,0022.95,0009.19
2022-04-16 21:41:00,,0820.3,5.00,0.00,26.9,26.2,00.0,35.7,28.8,10.1,0004.6,0011.09,0023.42,0009.20
2022-04-16 21:42:00,,0820.3,5.00,0.00,26.9,26.2,00.0,35.7,28.8,10.0,0003.9,0011.02,0024.36,0009.20
2022-04-16 21:43:00,,0820.3,5.01,0.00,26.9,26.2,00.0,35.7,28.8,09.9,0003.7,0011.00,0025.06,0009.20
2022-04-16 21:44:00,,0820.4,4.99,0.00,26.9,26.2,00.0,35.7,28.8,10.1,0003.0,0011.00,0025.89,0009.21
2022-04-16 21:45:00,,0820.3,4.99,0.00,26.9,26.2,00.0,35.7,28.8,10.1,0002.0,0011.01,0025.32,0009.20
2022-04-16 21:46:00,,0820.4,5.00,0.00,27.0,26.2,00.0,35.7,28.8,10.0,0001.0,0010.98,0025.32,0009.20
2022-04-16 21:47:00,,0820.6,5.01,0.00,27.0,26.2,00.0,35.8,28.8,10.2,0001.2,0010.96,0025.34,0009.19
2022-04-16 21:48:00,,0820.6,4.99,0.00,27.0,26.2,00.0,35.8,28.9,10.0,0001.0,0011.01,0026.65,0009.20
2022-04-16 21:49:00,,0820.6,5.01,0.00,27.0,26.3,00.0,35.8,28.9,09.9,0001.9,0010.99,0026.46,0009.21
2022-04-16 21:50:00,,0820.6,4.99,0.00,27.0,26.3,00.0,35.8,28.9,09.9,0002.8,0010.96,0026.41,0009.22
2022-04-16 21:51:00,,0820.6,4.99,0.00,27.0,26.3,00.0,35.8,28.9,09.9,0002.7,0010.92,0026.10,0009.23
2022-04-16 21:52:00,,0820.5,5.01,0.00,27.0,26.3,00.0,35.8,28.9,09.9,0002.8,0010.94,0026.19,0009.26
2022-04-16 21:53:00,,0820.4,4.99,0.00,27.0,26.3,00.0,35.8,28.9,10.0,0003.4,0011.03,0025.38,0009.29
2022-04-16 21:54:00,,0820.3,5.00,0.00,27.0,26.3,00.0,35.8,28.9,10.1,0002.8,0011.02,0023.88,0009.28
2022-04-16 21:55:00,,0820.3,4.99,0.00,27.0,26.3,00.0,35.8,28.9,10.3,0003.2,0011.00,0022.69,0009.29
2022-04-16 21:56:00,,0820.2,4.99,0.00,27.1,26.3,00.0,35.8,28.9,10.3,0004.0,0010.96,0024.62,0009.30
2022-04-16 21:57:00,,0820.3,5.01,0.00,27.1,26.3,00.0,35.8,28.9,10.2,0004.2,0010.98,0025.36,0009.34
2022-04-16 21:58:00,,0820.2,4.98,0.00,27.1,26.3,00.0,35.9,28.9,10.1,0003.9,0011.01,0025.60,0009.37
2022-04-16 21:59:00,,0820.2,5.00,0.00,27.1,26.3,00.0,35.9,29.0,10.1,0004.0,0011.01,0025.35,0009.37
